This is the latest recevied weather packets stored in our database for station/object N5JXS. If no packets are shown the sender has not sent any weather packets the latest 10 day(s).
| Time | Temp. | Humidity | Pressure | Rain* | Wind** | Luminosity | Snow |
|---|---|---|---|---|---|---|---|
| 1787948474 | 28.89° C | 26% | 1027.7 hPa | 0 mm | - | 124 W/m² | - |
| 1787948170 | 28.89° C | 25% | 1027.7 hPa | 0 mm | - | 128 W/m² | - |
| 1787947869 | 28.89° C | 26% | 1027.8 hPa | 0 mm | - | 148 W/m² | - |
| 1787947563 | 28.89° C | 25% | 1028.1 hPa | 0 mm | - | 154 W/m² | - |
| 1787947257 | 28.89° C | 25% | 1028.2 hPa | 0 mm | - | 126 W/m² | - |
| 1787946956 | 28.89° C | 24% | 1028.1 hPa | 0 mm | - | 114 W/m² | - |
| 1787946655 | 29.44° C | 23% | 1028.1 hPa | 0 mm | - | 117 W/m² | - |
| 1787946350 | 30° C | 23% | 1028 hPa | 0 mm | - | 131 W/m² | - |
| 1787946045 | 30° C | 22% | 1028.1 hPa | 0 mm | - | 668 W/m² | - |
| 1787945744 | 30° C | 22% | 1028.2 hPa | 0 mm | - | 96 W/m² | - |
| 1787945440 | 30.56° C | 21% | 1028.2 hPa | 0 mm | - | 670 W/m² | - |
| 1787945135 | 30.56° C | 21% | 1028.5 hPa | 0 mm | - | 678 W/m² | - |
| 1787944833 | 30° C | 21% | 1028.5 hPa | 0 mm | - | 696 W/m² | - |
| 1787944528 | 30° C | 22% | 1028.2 hPa | 0 mm | - | 619 W/m² | - |
| 1787944224 | 30.56° C | 22% | 1028.3 hPa | 0 mm | - | 689 W/m² | - |
| 1787943923 | 30° C | 24% | 1028.3 hPa | 0 mm | - | 695 W/m² | - |
| 1787943619 | 29.44° C | 24% | 1028.8 hPa | 0 mm | - | 695 W/m² | - |
| 1787943318 | 29.44° C | 24% | 1028.7 hPa | 0 mm | - | 134 W/m² | - |
| 1787943014 | 30° C | 23% | 1029 hPa | 0 mm | - | 729 W/m² | - |
| 1787942709 | 28.33° C | 25% | 1029.2 hPa | 0 mm | - | 670 W/m² | - |
| 1787942403 | 28.33° C | 26% | 1028.8 hPa | 0 mm | - | 540 W/m² | - |
| 1787942097 | 27.78° C | 26% | 1029.1 hPa | 0 mm | - | 662 W/m² | - |
| 1787941793 | 28.33° C | 27% | 1029 hPa | 0 mm | - | 125 W/m² | - |
| 1787941492 | 30° C | 28% | 1029.3 hPa | 0 mm | - | 107 W/m² | - |
| 1787941186 | 30° C | 27% | 1029.3 hPa | 0 mm | - | 704 W/m² | - |
* Rain latest hour (hover to see other rain measurements)
** Current wind speed in m/s (hover to see current wind gust speed)